Location: Bastrop State Park
(30.1090°N, 97.2819°W)
Time: 06:37:41
(UTC-05:00)

ISS - Visible Passes

Search period start: 25 March 2017 00:00
Search period end: 04 April 2017 00:00
Orbit: 399 x 409 km, 51.6° (Epoch: 25 March)

Date Brightness Start Highest point End Pass type
(mag) Time Alt. Az. Time Alt. Az. Time Alt. Az.
25 Mar -3.7 06:08:04 52° SW 06:08:04 52° SW 06:11:13 10° SSE visible
25 Mar -4.0 21:03:50 10° SW 21:07:04 75° SE 21:07:13 72° E visible
26 Mar -2.9 20:11:53 10° SSW 20:14:46 30° SE 20:17:39 10° ENE visible
26 Mar -1.0 21:48:58 10° W 21:51:06 17° NW 21:51:06 17° NW visible
27 Mar -2.2 20:55:44 10° WSW 20:58:43 34° NW 21:01:44 10° NNE visible
28 Mar -3.7 20:03:03 10° SW 20:06:17 80° NW 20:09:32 10° NE visible
29 Mar -0.9 20:48:37 10° WNW 20:50:30 14° NW 20:52:24 10° N visible
